Weather reports worldwide

Advertisment
Ibiza/Es Codola, Spain (8373): temperature & dewpoint: 26.06.2020 07:00:00 - 02.07.2020 07:00:00 (CEST)Ibiza/Es Codola, Spain (8373): wind speed: 26.06.2020 07:00:00 - 02.07.2020 07:00:00 (CEST)Ibiza/Es Codola, Spain (8373): wind direction: 26.06.2020 07:00:00 - 02.07.2020 07:00:00 (CEST)Ibiza/Es Codola, Spain (8373): reduced air pressure: 26.06.2020 07:00:00 - 02.07.2020 07:00:00 (CEST)Ibiza/Es Codola, Spain (8373): visibility: 26.06.2020 07:00:00 - 02.07.2020 07:00:00 (CEST)
Date & Time tt [°C] td [°C] ff [km/h] ff [kn] dd ppp [hPa] vv [km]
02.07.2020 07:00:00 21,5 20,7 2 1 - 1011,7 10
02.07.2020 06:00:00 21,6 20,6 5 3 NNW 1011,3 10
02.07.2020 05:00:00 22,2 21,0 9 5 N 1011,5 12
02.07.2020 04:00:00 22,6 21,4 2 1 - 1011,5 10
02.07.2020 03:00:00 21,5 20,5 0 0 N 1011,2 10
02.07.2020 02:00:00 21,7 20,5 0 0 N 1011,6 15
02.07.2020 01:00:00 22,4 20,9 4 2 - 1011,8 10
02.07.2020 00:00:00 22,8 21,6 0 0 N 1011,8 10
01.07.2020 23:00:00 23,7 22,1 4 2 SW 1011,4 15
01.07.2020 22:00:00 24,1 22,2 9 5 WSW 1010,8 10
01.07.2020 21:00:00 24,7 22,4 15 8 WSW 1010,6 10
01.07.2020 20:00:00 25,2 22,5 16 9 SW 1010,7 10
01.07.2020 19:00:00 25,9 22,5 18 10 SW 1010,6 10
01.07.2020 18:00:00 27,0 22,3 18 10 SW 1011,1 10
01.07.2020 17:00:00 26,8 22,4 21 11 SW 1011,4 19
01.07.2020 16:00:00 28,1 22,3 22 12 SW 1011,7 10
01.07.2020 15:00:00 28,2 22,2 29 16 WSW 1011,7 10
01.07.2020 14:00:00 28,3 21,9 31 17 WSW 1011,7 10
01.07.2020 13:00:00 29,1 21,6 28 15 SW 1011,5 10
01.07.2020 12:00:00 28,9 21,8 26 14 WSW 1011,4 10
01.07.2020 11:00:00 27,5 22,2 21 11 SSW 1011,1 20
01.07.2020 10:00:00 27,2 21,4 13 7 SSW 1011,4 10
01.07.2020 09:00:00 26,2 20,5 5 3 W 1011,5 10
01.07.2020 08:00:00 24,4 20,9 5 3 N 1010,9 10
01.07.2020 07:00:00 22,6 20,5 4 2 - 1010,7 10
01.07.2020 06:00:00 23,5 21,1 13 7 NNE 1010,1 10
01.07.2020 05:00:00 23,7 21,2 13 7 NNE 1010,0 15
01.07.2020 04:00:00 23,9 21,4 15 8 NE 1010,3 10
01.07.2020 03:00:00 24,4 21,7 15 8 ENE 1010,8 10
01.07.2020 02:00:00 24,2 21,5 15 8 NE 1010,6 10
01.07.2020 01:00:00 24,5 21,8 16 9 ENE 1011,3 10
01.07.2020 00:00:00 24,7 22,0 18 10 ENE 1011,6 10
30.06.2020 23:00:00 24,9 22,2 16 9 ENE 1011,7 10
30.06.2020 22:00:00 25,0 20,9 13 7 ENE 1011,8 10
30.06.2020 21:00:00 25,4 21,5 16 9 ENE 1011,2 10
30.06.2020 20:00:00 26,1 21,7 24 13 ENE 1010,5 10
30.06.2020 19:00:00 26,7 21,8 18 10 ENE 1012,1 10
30.06.2020 18:00:00 27,8 21,9 18 10 ENE 1012,3 10
30.06.2020 17:00:00 27,8 21,9 18 10 ENE 1013,0 10
30.06.2020 16:00:00 27,9 22,2 18 10 E 1013,6 10
30.06.2020 15:00:00 28,0 22,4 18 10 ENE 1014,2 10
30.06.2020 14:00:00 28,7 22,3 16 9 ENE 1014,4 18
30.06.2020 13:00:00 27,6 21,7 16 9 ENE 1014,6 10
30.06.2020 12:00:00 27,6 22,5 18 10 ENE 1014,7 10
30.06.2020 11:00:00 27,0 22,2 16 9 ENE 1015,0 20
30.06.2020 10:00:00 26,5 22,3 13 7 E 1015,0 10
30.06.2020 09:00:00 25,6 22,1 16 9 ENE 1014,6 10
30.06.2020 08:00:00 24,7 21,8 13 7 ENE 1014,3 10
30.06.2020 07:00:00 22,7 21,0 13 7 NNE 1013,8 10
30.06.2020 06:00:00 22,6 21,1 13 7 NE 1013,7 10
30.06.2020 05:00:00 22,9 21,2 11 6 NE 1013,8 10
30.06.2020 04:00:00 22,5 20,8 5 3 N 1014,5 10
30.06.2020 03:00:00 23,2 21,1 5 3 N 1015,1 10
30.06.2020 02:00:00 23,2 21,5 8 4 ENE 1015,2 10
30.06.2020 01:00:00 24,0 21,7 5 3 ENE 1015,7 10
30.06.2020 00:00:00 24,0 21,9 11 6 E 1015,1 10
29.06.2020 23:00:00 24,2 21,9 11 6 E 1015,3 10
29.06.2020 22:00:00 24,1 21,8 13 7 ENE 1014,5 10
29.06.2020 21:00:00 24,6 21,5 13 7 E 1014,5 10
29.06.2020 20:00:00 25,8 21,5 15 8 E 1014,5 20
29.06.2020 19:00:00 26,5 21,5 16 9 E 1014,7 10
29.06.2020 18:00:00 27,7 21,5 11 6 E 1015,5 10
29.06.2020 17:00:00 28,9 21,8 13 7 SE 1015,9 10
29.06.2020 16:00:00 28,9 20,9 15 8 E 1016,3 10
29.06.2020 15:00:00 27,6 21,3 15 8 E 1016,8 10
29.06.2020 14:00:00 27,1 21,8 15 8 ESE 1017,0 10
29.06.2020 13:00:00 26,9 21,5 13 7 E 1017,3 10
29.06.2020 12:00:00 27,0 21,2 11 6 E 1017,4 10
29.06.2020 11:00:00 26,3 20,9 9 5 E 1017,3 10
29.06.2020 10:00:00 25,2 20,9 8 4 E 1017,4 10
29.06.2020 09:00:00 24,6 20,9 8 4 E 1017,1 10
29.06.2020 08:00:00 23,2 20,9 4 2 NNE 1016,8 20
29.06.2020 07:00:00 21,2 19,5 5 3 N 1016,4 10
29.06.2020 06:00:00 20,5 18,8 4 2 - 1016,2 10
29.06.2020 05:00:00 20,7 19,0 8 4 N 1016,2 18
29.06.2020 04:00:00 21,2 19,8 5 3 NNW 1016,2 10
29.06.2020 03:00:00 21,7 20,2 8 4 NNW 1016,6 10
29.06.2020 02:00:00 22,0 19,7 0 0 N 1016,7 18
29.06.2020 01:00:00 22,9 21,0 5 3 SSW 1017,1 10
29.06.2020 00:00:00 23,0 20,7 5 3 SSE 1017,2 10
28.06.2020 23:00:00 23,4 20,7 5 3 SSE 1017,0 10
28.06.2020 22:00:00 24,2 20,5 8 4 SE 1016,5 10
28.06.2020 21:00:00 25,1 21,4 9 5 ESE 1016,2 10
28.06.2020 20:00:00 26,3 21,3 13 7 ESE 1016,1 10
28.06.2020 19:00:00 27,1 21,7 5 3 SSW 1016,2 10
28.06.2020 18:00:00 26,9 21,4 11 6 SSW 1016,6 10
28.06.2020 17:00:00 27,2 21,5 13 7 SSW 1016,9 10
28.06.2020 16:00:00 27,3 21,4 11 6 SW 1017,3 10
28.06.2020 15:00:00 28,6 21,3 16 9 S 1017,6 10
28.06.2020 14:00:00 28,9 20,5 9 5 S 1017,7 10
28.06.2020 13:00:00 28,9 21,1 9 5 SE 1018,1 10
28.06.2020 12:00:00 27,6 20,1 11 6 E 1018,1 10
28.06.2020 11:00:00 26,8 20,2 8 4 E 1017,9 10
28.06.2020 10:00:00 26,2 21,0 9 5 ESE 1017,7 10
28.06.2020 09:00:00 25,0 20,8 9 5 ENE 1017,2 10
28.06.2020 08:00:00 22,7 20,4 5 3 N 1017,0 10
28.06.2020 07:00:00 21,1 19,6 2 1 - 1016,5 10
28.06.2020 06:00:00 20,7 19,4 8 4 NNW 1016,5 10
28.06.2020 05:00:00 20,4 19,2 4 2 N 1016,2 15
28.06.2020 04:00:00 20,9 19,6 5 3 NNW 1016,4 10
28.06.2020 03:00:00 20,9 19,4 0 0 N 1016,6 10
28.06.2020 02:00:00 21,5 19,8 2 1 NNW 1017,1 15
28.06.2020 01:00:00 22,2 20,1 5 3 WNW 1017,1 10
28.06.2020 00:00:00 22,6 20,5 4 2 - 1016,4 10
27.06.2020 23:00:00 23,4 21,1 5 3 W 1015,9 15
27.06.2020 22:00:00 23,2 20,9 8 4 WSW 1015,2 10
27.06.2020 21:00:00 24,2 21,1 9 5 SW 1014,9 10
27.06.2020 20:00:00 25,4 21,5 11 6 SW 1014,6 20
27.06.2020 19:00:00 26,1 21,3 13 7 SW 1014,6 10
27.06.2020 18:00:00 26,8 21,1 15 8 SW 1014,8 10
27.06.2020 17:00:00 27,1 21,8 15 8 SW 1015,0 10
27.06.2020 16:00:00 27,5 21,6 16 9 SW 1015,2 10
27.06.2020 15:00:00 26,9 20,7 18 10 SW 1015,1 10
27.06.2020 14:00:00 27,5 20,5 15 8 SW 1015,3 10
27.06.2020 13:00:00 26,9 21,0 18 10 SSW 1015,6 10
27.06.2020 12:00:00 26,3 21,5 16 9 SW 1015,5 10
27.06.2020 11:00:00 26,1 20,7 16 9 SSW 1015,1 25
27.06.2020 10:00:00 25,6 20,7 11 6 SSW 1014,8 10
27.06.2020 09:00:00 25,4 20,1 8 4 W 1014,5 10
27.06.2020 08:00:00 23,9 20,8 4 2 - 1014,6 10
27.06.2020 07:00:00 22,0 20,2 2 1 - 1014,0 10
27.06.2020 06:00:00 21,5 19,6 4 2 - 1013,7 10
27.06.2020 05:00:00 21,6 19,0 8 4 NNW 1013,6 10
27.06.2020 04:00:00 23,1 19,5 8 4 WNW 1013,6 10
27.06.2020 03:00:00 23,6 19,9 8 4 NNW 1013,5 10
27.06.2020 02:00:00 24,2 19,9 4 2 - 1013,5 10
27.06.2020 01:00:00 24,1 20,8 0 0 N 1013,7 10
27.06.2020 00:00:00 24,2 20,3 8 4 ENE 1013,8 10
26.06.2020 23:00:00 24,2 20,3 16 9 ENE 1013,2 18
26.06.2020 22:00:00 24,2 20,7 13 7 ENE 1012,9 10
26.06.2020 21:00:00 24,4 20,7 11 6 ENE 1012,0 10
26.06.2020 20:00:00 24,6 20,8 16 9 ENE 1012,1 15
26.06.2020 19:00:00 25,2 20,7 16 9 ENE 1012,0 10
26.06.2020 18:00:00 25,8 21,0 16 9 ENE 1012,6 10
26.06.2020 17:00:00 26,8 21,1 16 9 E 1013,4 10
26.06.2020 16:00:00 26,7 21,1 16 9 E 1013,9 10
26.06.2020 15:00:00 27,3 20,7 16 9 E 1014,0 10
26.06.2020 14:00:00 26,9 20,4 18 10 ENE 1014,3 20
26.06.2020 13:00:00 27,3 20,5 16 9 ENE 1014,6 10
26.06.2020 12:00:00 27,0 19,9 16 9 E 1014,9 10
26.06.2020 11:00:00 26,3 19,4 18 10 E 1014,8 10
26.06.2020 10:00:00 26,3 18,9 21 11 ENE 1014,7 10
26.06.2020 09:00:00 26,0 17,9 16 9 ENE 1014,6 10
26.06.2020 08:00:00 24,5 16,7 8 4 NE 1014,6 10
26.06.2020 07:00:00 21,5 17,0 9 5 NE 1014,5 10

tt = temperature
td = dewpoint
ff = wind speed
dd = wind direction
ppp = reduced air pressure
vv = visibility

Next stations